This is the latest recevied weather packets stored in our database for station/object W5ALL-WX. If no packets are shown the sender has not sent any weather packets the latest 1 day(s).
| Time | Temp. | Humidity | Pressure | Rain* | Wind** | Luminosity | Snow |
|---|---|---|---|---|---|---|---|
| 1778033831 | 20° C | 33% | 1009.9 hPa | 0 mm | 1.79 m/s, 181° | - | - |
| 1778033531 | 20° C | 33% | 1009.9 hPa | 0 mm | 2.68 m/s, 198° | - | - |
| 1778033231 | 20° C | 33% | 1009.8 hPa | 0 mm | 1.79 m/s, 203° | - | - |
| 1778032931 | 20° C | 32% | 1009.8 hPa | 0 mm | 1.79 m/s, 183° | - | - |
| 1778032631 | 20.56° C | 32% | 1009.8 hPa | 0 mm | 2.24 m/s, 186° | - | - |
| 1778032331 | 20.56° C | 32% | 1009.8 hPa | 0 mm | 2.24 m/s, 204° | - | - |
| 1778032031 | 20.56° C | 31% | 1009.7 hPa | 0 mm | 1.79 m/s, 204° | - | - |
| 1778031731 | 21.11° C | 31% | 1009.7 hPa | 0 mm | 2.68 m/s, 205° | - | - |
| 1778031431 | 21.11° C | 30% | 1009.6 hPa | 0 mm | 3.13 m/s, 179° | - | - |
| 1778031131 | 21.11° C | 30% | 1009.6 hPa | 0 mm | 2.68 m/s, 174° | - | - |
| 1778030831 | 21.11° C | 30% | 1009.7 hPa | 0 mm | 2.68 m/s, 174° | - | - |
| 1778030531 | 21.67° C | 29% | 1009.7 hPa | 0 mm | 4.02 m/s, 195° | - | - |
| 1778030231 | 21.11° C | 29% | 1009.6 hPa | 0 mm | 2.68 m/s, 225° | - | - |
| 1778029931 | 21.67° C | 29% | 1009.7 hPa | 0 mm | 2.68 m/s, 187° | - | - |
| 1778029631 | 21.67° C | 29% | 1009.7 hPa | 0 mm | 2.24 m/s, 162° | - | - |
| 1778029331 | 21.67° C | 28% | 1009.7 hPa | 0 mm | 3.58 m/s, 201° | - | - |
| 1778029031 | 21.67° C | 28% | 1009.6 hPa | 0 mm | 4.02 m/s, 212° | - | - |
| 1778028731 | 21.67° C | 27% | 1009.7 hPa | 0 mm | 3.58 m/s, 212° | - | - |
| 1778028431 | 21.67° C | 27% | 1009.7 hPa | 0 mm | 2.24 m/s, 236° | - | - |
| 1778028131 | 21.67° C | 27% | 1009.7 hPa | 0 mm | 1.34 m/s, 236° | - | - |
| 1778027831 | 21.67° C | 26% | 1009.4 hPa | 0 mm | 3.58 m/s, 201° | - | - |
| 1778027531 | 22.22° C | 26% | 1009.4 hPa | 0 mm | 2.68 m/s, 228° | - | - |
| 1778027231 | 22.22° C | 27% | 1009.4 hPa | 0 mm | 2.68 m/s, 194° | - | - |
| 1778026931 | 22.22° C | 26% | 1009.4 hPa | 0 mm | 2.68 m/s, 222° | - | - |
| 1778026631 | 22.22° C | 26% | 1009.6 hPa | 0 mm | 2.68 m/s, 257° | - | - |
* Rain latest hour (hover to see other rain measurements)
** Current wind speed in m/s (hover to see current wind gust speed)